Location: Colorado Springs
(38.8340°N, 104.8210°W)
Time: 08:58:43
(UTC-07:00)

Vanguard 3 - Pass Details

Date: 24 October 2017
Orbit: 509 x 3263 km, 33.4° (Epoch: 18 November)

Event Time Altitude Azimuth Distance (km) Brightness Sun altitude
Rises 09:55:57 0° 275° (W) 4,611 10.6 25.9°
Reaches altitude 10° 10:00:44 10° 259° (WSW) 3,069 9.9 26.6°
Maximum altitude 10:05:06 17° 221° (SW) 2,102 9.5 27.2°
Drops below altitude 10° 10:08:25 10° 180° (S) 2,224 10.2 27.7°
Sets 10:11:09 0° 158° (SSE) 2,894 11.0 28.0°
